Starlink 2439

operational
NORAD ID: 48104 Int'l Des: 2021-027 Owner: SPXS Country: US Constellation: starlink
LEOCIRCULAR

About Starlink 2439

Description loading...

Live Position

Loading 3D Globe...

Upcoming Passes

Altitude History

Altitude vs Time

uPlot chart will show altitude changes over time

Two-Line Element Set

1 48104U 21027N 26070.20898455 .00001317 00000-0 56578-4 0 9992
2 48104 53.1596 145.7084 0001248 76.9694 283.1446 15.30207480272923
Epoch: Mar 11, 2026 • Age: 14 hours

Current Status

Altitude 493.0 km
Velocity 7.62 km/s
Sub-Earth Point -49.64°S, 61.84°E
Launch Date Apr 7, 2021
Age 4.9 years
Type internet

Technical Details

Classification Payload
Mass 260.00 kg
Dry Mass 248.00 kg
Total Mass 260.00 kg
Length 0.20 m
Diameter 2.80 m
Span 9.00 m
Shape Box + pan
Manufacturer SPXS
Bus Type Starlink
Phase Status In Orbit
Owner/State SPXS/US

Large Constellations

Loading constellations...